Lid_Strength_Index
0 1 1 1 0 1 1 2 1 1 1 1 1 1 -0 -1 -0 -0 0 0 0 1
3 2 3 2 2 3 2 3 2 2 2 2 2 0 -0 0 1 0 0 -0 -0 0
3 4 3 3 3 3 2 3 3 3 2 2 1 1 1 2 1 0 0 0 0 0
4 4 4 4 4 3 3 3 3 3 3 3 3 2 2 1 1 1 1 0 0 0
7 6 6 5 6 5 5 5 5 5 4 4 3 2 2 2 1 1 1 1 1 1
8 7 7 6 6 5 5 5 5 5 4 4 3 3 3 3 3 2 2 2 2 2
8 8 7 6 6 5 5 5 5 4 4 4 4 4 4 4 3 2 2 2 2 2
8 7 7 7 6 6 6 6 5 5 5 5 5 5 5 4 4 3 3 2 3 2
8 8 8 7 7 6 6 6 6 5 5 5 5 7 7 6 4 3 3 3 3 2
8 8 8 7 7 7 7 6 5 5 5 5 4 7 8 7 5 4 3 3 3 3
8 8 8 7 7 7 6 6 6 6 6 5 5 7 8 7 4 3 3 3 3 3
9 9 8 8 7 6 6 7 8 7 6 6 5 7 8 7 5 4 4 3 3 4
9 8 8 7 7 7 7 7 7 7 5 6 5 7 8 7 6 6 5 4 4 5
8 7 7 7 7 7 7 7 7 7 6 7 8 7 9 9 8 8 9 8 7 6